Temp_Advection
nan nan nan nan nan nan nan nan nan nan nan nan nan nan nan nan nan nan nan nan nan nan nan nan nan nan nan nan nan nan nan nan nan nan nan nan nan nan nan nan nan nan nan nan
nan -0 -1 -0 -0 -0 -0 -0 -0 -1 -0 -0 0 0 -0 -0 -0 -1 -1 -1 -0 -0 -1 -0 -0 -1 -1 -0 -1 -1 -1 -1 -1 -0 -0 -0 0 -0 -0 0 0 -0 0 nan
nan -1 -0 -0 -0 -0 -0 -0 -0 -1 -0 -0 -0 -0 -0 -0 -0 -0 -0 -0 -0 -0 -1 -1 -1 -1 -1 -1 -1 -1 -1 -1 -1 -0 -0 -0 -0 -0 -0 -0 -0 0 0 nan
nan -0 0 0 -0 -0 -0 -1 -0 0 -0 0 -0 0 -0 -0 -0 -0 -0 0 0 0 -1 -1 -1 -1 -1 -1 -1 -1 -0 -0 -1 -1 -0 -0 -1 -0 -1 0 0 0 -0 nan
nan -0 -0 -0 -1 -0 -0 -0 -0 0 0 0 0 -0 -0 0 -0 -0 -0 -0 -0 -0 -0 -0 -1 -1 -0 -0 -1 -1 -1 -1 -1 -1 -1 -1 -1 -1 -1 -0 -1 -1 -1 nan
nan -0 -0 -0 -0 -0 -0 0 0 -0 -0 -0 -0 -0 0 -0 -1 -0 -0 -0 -1 -1 -0 -0 1 1 1 1 -0 -0 -1 -1 -1 -1 -1 -1 -1 -1 -1 -1 -1 -1 -0 nan
nan -0 -1 0 -0 -0 0 -0 0 -0 -0 -0 -0 0 -0 -0 -0 -1 -1 -1 -2 -1 -0 0 0 -1 -0 0 0 1 -0 -1 -1 -1 -1 -1 -1 -1 -1 -1 0 0 -0 nan
nan -0 -1 -0 -0 0 0 -0 -0 0 -0 -0 -0 -0 -0 -0 -0 -0 -0 -1 -0 0 -1 -2 -2 -2 -1 -1 -0 -1 -1 -1 -1 -1 -1 -1 -1 -1 -1 -0 0 -0 -1 nan
nan -1 -1 -0 -0 -0 0 -0 -0 -0 0 0 -0 -0 -0 -0 0 -0 -0 0 1 0 -1 -2 -1 -1 -1 -1 -2 -1 -1 -1 -2 -0 0 -0 -0 -0 -0 -0 0 -0 -1 nan
nan -0 -0 -1 0 0 0 -0 -0 -0 0 -0 -0 -0 -0 -1 -0 0 0 -0 -1 -0 -1 -1 -0 -2 -1 -2 -0 -0 -1 -1 1 2 0 -0 -0 -0 -0 0 1 0 -1 nan
nan 0 -0 -0 -0 -0 0 0 -0 -0 -0 0 0 -0 -1 -1 -0 -0 -0 -1 -1 -2 -2 -1 -1 -1 -1 1 1 1 1 2 1 -0 0 1 1 1 1 1 1 0 1 nan
nan 0 0 -1 -1 0 0 0 -0 0 0 0 0 -1 -0 0 -0 -0 -1 -1 -1 -1 0 0 -0 -0 0 1 1 -0 -0 -0 -1 3 2 1 -0 -0 0 -0 -1 2 2 nan
nan -0 -0 -1 -0 0 -0 -0 0 -1 -0 -0 -0 -1 -0 0 -0 -1 0 0 0 0 0 -0 0 0 1 -0 -0 -0 -1 -1 4 3 -1 -2 -1 0 -0 1 1 1 1 nan
nan -0 -0 -0 -1 -0 -0 -0 0 0 -0 -0 -1 -0 -0 0 -0 -0 -0 0 -0 0 0 0 -0 -0 -0 -0 -0 -0 -0 2 4 0 -2 -1 -1 -0 2 1 -0 2 2 nan
nan 0 -1 -2 -2 -1 -0 0 0 0 -0 -0 -0 -0 -0 -0 -1 -1 -1 -0 0 -0 -0 -0 0 0 -0 -0 0 0 0 1 2 0 -0 1 0 0 0 0 2 3 1 nan
nan 0 -1 -1 -2 -1 -0 -0 -0 0 0 -0 -0 -0 -0 -1 0 -0 -1 -0 -0 -0 -0 1 0 0 0 0 0 1 1 1 1 1 1 1 1 1 2 3 3 1 1 nan
nan 0 0 -1 -2 -1 -1 -2 -0 0 -0 -0 0 -0 -0 0 -0 -1 -2 -1 -1 -1 1 1 0 1 1 0 1 2 1 1 1 2 3 2 2 2 3 2 1 1 1 nan
nan -0 0 -0 -1 -1 -3 -0 0 1 0 0 -0 -0 -0 -1 -1 -1 -0 -0 -2 -1 0 0 1 0 1 2 2 2 1 1 2 2 2 2 2 2 2 1 1 1 1 nan
nan -0 -0 -0 -1 -2 -0 -0 0 -0 -0 -0 -0 -0 -0 -1 1 0 -0 -1 -1 1 1 1 1 2 2 2 2 2 1 1 1 1 1 1 1 1 1 1 1 1 1 nan
nan 0 -0 0 -0 -1 -1 0 -1 -0 0 -1 -1 0 -0 1 0 -1 -2 -1 1 1 2 1 2 2 2 2 2 2 1 1 1 1 1 0 0 0 0 0 0 0 1 nan
nan -0 -0 -0 -0 -1 -1 -3 -0 1 -0 -2 -1 0 1 -0 -2 -3 0 1 1 1 1 1 1 2 3 2 2 2 1 1 1 1 1 1 0 0 1 1 1 1 1 nan
nan -0 -0 -0 -0 -1 0 -1 -0 -0 -1 -1 -4 -1 -0 -1 -1 0 1 1 1 1 1 1 2 3 3 2 2 1 1 1 1 1 1 1 1 1 1 1 1 1 1 nan
nan -0 -0 -0 -1 -0 -0 0 -0 0 0 -0 -0 -2 -1 -1 1 1 0 1 1 2 2 2 3 3 2 2 1 1 1 2 1 1 1 1 1 1 1 1 1 1 1 nan
nan -0 -0 0 -0 -0 -0 -0 -0 -0 0 0 1 0 -0 -1 -1 2 2 2 2 3 3 3 3 2 1 1 1 1 1 1 1 1 1 1 1 1 1 1 1 1 1 nan
nan 0 0 -0 -0 -0 -1 -1 0 0 0 -0 -0 -0 -0 -0 -0 0 1 3 3 3 3 2 2 1 1 1 1 1 1 1 1 1 1 1 1 1 1 0 1 1 1 nan
nan nan nan nan nan nan nan nan nan nan nan nan nan nan nan nan nan nan nan nan nan nan nan nan nan nan nan nan nan nan nan nan nan nan nan nan nan nan nan nan nan nan nan nan
Wind_Speed
5 4 8 11 10 8 5 7 10 14 10 6 8 5 11 17 16 16 23 24 23 23 17 11 15 18 20 22 26 35 39 41 42 44 45 46 48 42 36 39 40 21 19 20
3 14 10 9 8 8 9 10 17 10 4 5 6 8 3 8 11 22 24 29 28 25 22 17 17 20 23 25 28 34 38 39 42 42 40 43 40 39 36 44 39 26 21 25
12 8 14 10 11 10 13 10 13 9 3 3 7 5 5 6 12 12 25 32 31 35 31 26 24 24 24 28 29 31 35 36 37 38 38 33 33 36 32 44 41 32 28 27
8 13 12 8 11 11 11 13 10 7 3 4 5 5 5 7 6 9 17 29 35 39 36 33 31 28 28 29 29 32 35 35 33 37 39 37 39 42 44 40 35 35 35 31
9 7 12 16 19 11 14 15 9 5 4 2 5 2 7 4 8 9 12 29 39 45 44 42 38 34 32 30 32 34 37 38 35 36 39 39 45 45 42 39 40 36 37 38
9 14 6 8 10 10 10 3 3 3 2 1 5 5 4 5 12 9 12 30 40 45 50 46 41 36 35 36 36 39 41 42 41 38 40 46 48 46 42 40 39 36 37 37
12 20 15 9 7 13 5 5 2 3 2 6 5 3 7 4 8 16 18 31 37 47 47 49 45 44 41 43 43 43 48 47 45 45 45 46 46 44 42 41 39 37 35 36
12 6 17 12 17 6 8 9 6 6 4 5 3 5 6 7 4 16 24 33 42 37 46 49 50 47 45 45 45 46 46 47 47 47 46 45 44 44 45 44 43 41 40 37
6 8 8 15 11 8 6 5 8 5 2 2 4 6 7 8 8 10 20 31 39 38 45 50 50 49 47 46 47 48 48 47 47 49 48 46 45 47 47 45 46 44 41 34
5 6 6 16 6 12 13 5 2 1 6 4 3 4 5 8 9 2 2 19 31 40 42 49 49 50 49 47 45 47 49 50 51 51 50 49 48 47 46 46 45 40 39 40
9 10 8 5 5 15 2 4 1 5 5 6 2 5 8 11 7 4 5 23 36 34 40 45 46 49 50 48 47 48 49 51 52 51 49 50 50 50 49 49 46 43 43 39
5 7 12 23 17 10 7 11 11 6 4 3 5 9 6 7 9 6 10 21 26 33 31 36 42 43 47 49 51 49 50 51 53 52 45 42 39 39 41 42 46 44 31 26
6 4 4 7 9 5 8 5 10 5 4 9 7 5 5 5 6 14 5 10 20 26 21 21 23 32 38 38 41 47 50 54 55 47 43 40 33 31 44 40 41 36 39 38
8 5 5 11 7 5 5 11 10 11 6 5 7 7 5 5 7 5 7 12 17 25 24 26 26 26 25 25 23 26 33 38 46 49 50 48 37 34 38 37 39 43 39 38
4 6 12 17 14 18 19 9 9 14 7 9 7 9 10 10 11 15 17 12 9 22 27 29 28 24 22 20 20 21 22 27 43 45 43 46 45 34 31 36 35 32 38 33
2 2 10 10 13 16 20 20 16 15 10 7 8 8 8 19 22 14 20 26 23 19 26 30 30 26 25 22 21 21 18 22 33 40 38 36 34 34 30 28 27 26 27 26
5 3 5 6 16 13 11 27 19 6 7 6 8 8 8 9 10 17 28 33 34 31 31 30 34 33 30 27 28 25 22 21 25 26 30 27 29 28 28 29 26 25 23 22
6 6 4 7 14 8 18 4 16 16 9 7 5 6 10 18 28 29 26 33 37 33 33 29 34 34 32 31 29 24 22 23 26 26 28 31 31 30 27 25 23 22 22 19
4 5 3 4 7 16 5 12 3 7 14 8 8 11 9 19 16 11 17 29 27 35 34 34 35 34 37 34 31 27 24 23 22 24 25 25 24 22 21 21 21 19 18 17
7 3 4 3 4 6 9 7 19 2 8 9 15 12 9 9 2 5 18 29 39 35 33 39 35 33 35 33 31 29 25 24 23 21 20 19 19 17 18 17 18 17 16 16
3 0 7 4 4 8 11 23 15 11 7 19 6 14 15 6 11 18 15 26 28 28 32 28 29 33 34 33 31 28 25 23 21 22 22 21 19 17 16 16 16 16 17 17
8 8 5 5 4 10 2 13 5 6 9 21 26 10 9 13 9 10 22 24 26 29 30 30 32 32 33 32 29 26 24 24 24 23 21 20 18 17 17 17 18 18 18 17
4 7 5 9 7 4 3 1 10 5 9 13 23 23 26 14 13 22 24 25 25 25 29 29 31 32 30 28 25 25 25 25 24 22 20 18 16 15 14 15 17 17 17 18
4 5 4 3 8 11 7 9 19 12 9 15 23 24 22 15 18 24 29 32 31 35 33 31 32 30 28 26 24 22 24 23 21 19 18 18 18 18 18 18 17 17 18 18
5 7 6 5 6 5 18 9 12 10 5 11 14 19 20 14 13 21 25 32 34 34 31 31 31 30 28 26 24 23 22 22 20 20 21 20 19 19 20 18 17 18 15 12
6 3 4 6 11 7 15 14 8 10 6 10 13 15 14 18 17 17 24 29 31 31 31 29 28 28 27 25 24 22 22 22 23 22 20 20 19 19 18 19 19 16 13 12
Wind_Direction
196 186 205 207 214 235 265 263 264 273 240 152 214 218 179 187 194 192 186 196 202 205 200 204 192 194 188 194 195 190 184 188 189 190 194 193 190 196 197 194 199 198 206 220
213 235 222 203 225 241 256 270 281 282 215 146 179 258 118 178 213 200 189 201 207 209 199 200 196 199 197 193 194 192 195 198 194 199 200 197 197 204 213 196 204 215 222 229
204 217 201 212 240 246 256 251 262 239 256 46 109 319 252 196 191 215 217 210 206 206 197 197 198 200 198 194 190 190 189 188 191 193 195 201 204 202 197 199 207 214 229 227
226 239 245 233 237 231 262 254 251 266 128 229 146 249 278 225 222 210 222 198 200 201 206 199 197 201 205 199 192 190 190 190 190 193 195 201 195 193 197 201 208 224 228 231
226 177 203 231 235 230 250 243 241 226 199 139 306 111 271 166 238 231 210 201 196 203 206 204 203 202 204 199 197 193 194 196 191 190 196 200 196 203 205 213 221 226 229 235
223 254 194 215 237 220 246 189 272 360 101 317 241 160 257 184 222 223 220 204 199 200 207 211 211 205 204 201 198 197 195 195 197 197 196 200 204 210 215 221 229 232 233 232
243 249 259 259 282 267 198 104 270 306 325 226 242 234 232 239 240 216 200 209 202 205 202 206 209 207 206 204 203 202 202 203 202 205 208 210 216 220 222 224 227 231 233 234
215 281 228 226 213 221 212 168 164 211 198 250 296 246 247 226 199 202 223 214 214 208 208 210 213 214 211 209 209 209 210 214 214 215 217 218 221 224 226 230 233 237 237 241
184 239 258 215 221 178 232 171 190 160 353 121 235 285 310 283 268 206 225 212 214 211 212 217 219 220 219 215 214 215 215 219 221 223 222 221 223 226 229 232 236 242 240 241
237 267 236 258 258 242 207 196 128 37 186 235 236 252 232 295 293 42 229 208 210 213 208 218 221 223 225 226 225 222 223 224 226 224 225 226 227 229 233 239 243 246 237 240
199 233 258 309 237 235 226 200 157 146 149 187 208 252 220 233 224 217 234 240 227 214 216 217 222 227 228 229 230 232 231 230 230 230 232 234 234 236 240 243 244 245 233 232
325 226 227 244 249 262 235 222 188 188 206 228 173 245 272 243 243 204 261 246 235 233 230 228 225 226 232 230 230 232 236 236 238 236 230 230 238 241 240 242 250 253 227 228
343 323 261 271 261 239 224 224 218 149 126 195 181 249 248 245 234 235 124 209 198 203 191 189 203 219 231 233 237 238 240 243 243 227 224 226 235 258 247 247 248 247 238 232
119 286 245 253 278 228 230 226 217 195 181 190 218 221 232 239 241 276 194 199 207 191 191 191 188 188 193 206 216 227 240 247 238 231 229 228 231 248 243 247 246 246 238 245
78 279 326 304 280 264 249 241 221 208 200 195 208 203 216 212 213 241 225 210 213 209 201 212 207 203 199 209 219 223 227 231 234 235 238 237 235 235 239 240 240 235 236 226
136 267 350 304 284 262 247 239 251 229 207 216 225 235 222 225 225 227 235 240 228 218 226 219 212 214 214 219 230 240 230 218 227 230 230 232 225 228 226 223 211 204 203 211
146 165 56 281 330 295 264 235 229 242 221 179 213 220 235 244 226 215 225 232 232 235 239 229 215 216 218 220 230 231 226 216 211 214 218 221 215 210 202 192 194 202 206 209
136 101 119 288 317 249 248 249 226 225 229 215 243 219 235 237 242 242 243 232 224 230 239 231 223 214 218 219 218 221 210 200 195 196 192 188 185 184 185 190 197 203 210 210
164 125 179 240 295 286 246 239 199 203 255 244 247 257 231 245 251 239 246 227 216 241 232 209 210 214 211 209 212 214 204 202 200 192 189 189 192 194 188 187 192 196 201 199
94 110 161 156 250 293 324 195 233 56 275 251 224 230 239 226 212 249 221 221 228 237 230 205 207 203 206 207 212 210 204 200 203 206 205 200 199 197 193 196 194 195 194 191
103 299 217 175 220 252 249 302 240 200 262 324 300 246 231 197 227 250 227 215 223 219 198 197 206 206 206 208 207 208 211 212 216 211 207 203 200 203 204 202 196 188 180 177
165 171 213 164 183 249 79 323 47 296 317 334 334 350 313 241 185 209 189 186 186 189 194 203 205 203 201 203 208 208 211 215 216 208 203 200 200 201 196 191 181 180 182 188
203 190 187 193 216 270 197 2 300 328 311 333 336 337 3 267 188 173 182 193 197 204 200 202 206 198 197 204 211 213 211 209 204 203 201 198 193 189 187 191 187 187 193 198
258 164 215 134 248 244 241 249 275 275 337 343 356 359 12 309 226 197 195 194 197 197 196 197 197 192 190 198 205 217 206 202 203 201 195 190 189 189 191 192 193 195 195 197
206 167 195 240 273 276 257 241 267 285 349 344 351 354 9 358 319 244 209 202 197 195 194 193 193 191 192 195 198 201 201 200 197 192 188 192 195 190 184 186 187 192 192 209
330 307 199 224 231 223 258 262 269 258 335 344 344 346 1 329 330 295 244 212 199 188 186 186 187 188 187 190 190 191 194 199 196 189 190 192 190 189 187 184 178 180 193 205
Height
1477 1483 1485 1484 1486 1481 1484 1489 1490 1475 1468 1467 1470 1470 1472 1475 1480 1482 1481 1484 1487 1488 1489 1490 1491 1493 1494 1497 1499 1502 1504 1507 1510 1514 1519 1522 1526 1530 1535 1538 1541 1543 1547 1550
1479 1477 1472 1474 1478 1481 1482 1484 1480 1471 1458 1463 1471 1471 1474 1472 1474 1475 1477 1480 1484 1487 1488 1488 1490 1491 1492 1493 1496 1499 1502 1506 1509 1513 1517 1522 1524 1527 1531 1535 1538 1540 1543 1548
1473 1464 1465 1474 1475 1479 1476 1481 1477 1473 1458 1460 1470 1476 1470 1466 1469 1472 1472 1475 1479 1479 1482 1485 1486 1487 1489 1491 1492 1495 1498 1502 1506 1510 1516 1519 1523 1526 1529 1530 1533 1535 1541 1544
1469 1461 1466 1471 1472 1471 1479 1463 1465 1464 1467 1481 1464 1492 1473 1464 1465 1468 1468 1470 1473 1475 1479 1480 1482 1483 1486 1489 1493 1496 1498 1502 1504 1509 1512 1515 1516 1517 1522 1526 1529 1533 1537 1538
1459 1456 1461 1465 1464 1463 1467 1458 1461 1456 1463 1467 1467 1480 1468 1459 1463 1461 1463 1462 1463 1466 1470 1473 1475 1479 1483 1487 1489 1494 1499 1503 1504 1507 1510 1513 1514 1519 1522 1525 1528 1531 1533 1535
1452 1451 1453 1455 1453 1455 1453 1454 1456 1458 1467 1484 1468 1474 1474 1467 1452 1450 1455 1455 1456 1461 1462 1464 1468 1474 1478 1484 1488 1491 1494 1497 1501 1504 1506 1509 1511 1515 1519 1522 1524 1526 1528 1530
1454 1449 1446 1450 1455 1448 1453 1462 1483 1487 1490 1489 1462 1465 1461 1445 1442 1439 1443 1446 1448 1452 1457 1461 1465 1468 1473 1477 1481 1485 1488 1491 1495 1498 1500 1502 1505 1509 1512 1515 1517 1520 1522 1523
1458 1463 1446 1439 1445 1448 1450 1458 1485 1490 1499 1478 1462 1467 1454 1435 1433 1432 1438 1439 1442 1446 1448 1453 1455 1458 1463 1468 1473 1477 1481 1486 1488 1488 1490 1495 1500 1503 1506 1508 1511 1514 1516 1519
1456 1452 1432 1431 1435 1439 1444 1455 1447 1466 1473 1482 1470 1454 1439 1430 1428 1428 1430 1432 1436 1439 1442 1445 1449 1453 1456 1461 1463 1466 1472 1475 1476 1477 1483 1486 1490 1494 1497 1500 1502 1507 1512 1514
1437 1448 1431 1429 1431 1428 1431 1433 1455 1465 1478 1481 1468 1460 1455 1435 1426 1425 1427 1432 1432 1433 1437 1440 1443 1446 1449 1453 1456 1461 1463 1463 1464 1473 1481 1484 1486 1489 1492 1495 1499 1501 1506 1508
1433 1439 1439 1433 1429 1435 1434 1437 1437 1444 1459 1473 1476 1465 1435 1429 1423 1420 1421 1426 1427 1429 1431 1433 1437 1440 1443 1447 1450 1452 1457 1460 1464 1467 1472 1474 1478 1483 1487 1489 1494 1498 1497 1498
1436 1432 1438 1428 1420 1420 1421 1422 1427 1449 1453 1457 1466 1446 1423 1422 1422 1418 1419 1420 1422 1425 1426 1428 1430 1434 1438 1441 1446 1447 1450 1454 1454 1458 1470 1475 1481 1479 1481 1484 1485 1487 1476 1494
1441 1439 1444 1432 1423 1414 1421 1418 1416 1423 1438 1447 1462 1447 1419 1418 1421 1419 1415 1419 1421 1422 1423 1425 1426 1430 1432 1435 1439 1442 1443 1443 1446 1456 1460 1464 1470 1466 1470 1471 1476 1476 1479 1477
1436 1445 1439 1440 1430 1420 1418 1412 1412 1416 1442 1439 1438 1429 1422 1418 1419 1418 1415 1416 1416 1417 1421 1422 1423 1424 1427 1431 1433 1435 1435 1436 1441 1445 1450 1454 1458 1458 1461 1464 1464 1469 1472 1478
1437 1451 1445 1432 1424 1415 1410 1409 1409 1410 1415 1427 1423 1424 1415 1412 1412 1411 1411 1413 1415 1414 1415 1418 1419 1421 1422 1424 1426 1429 1430 1431 1433 1437 1441 1446 1451 1453 1454 1455 1458 1462 1467 1470
1444 1445 1449 1434 1418 1412 1408 1401 1400 1397 1404 1409 1410 1411 1403 1400 1401 1403 1405 1406 1406 1408 1411 1412 1415 1416 1417 1419 1420 1421 1424 1427 1430 1433 1437 1440 1443 1446 1448 1451 1454 1458 1461 1465
1440 1450 1450 1444 1430 1417 1417 1386 1392 1395 1394 1396 1408 1402 1395 1396 1396 1397 1397 1397 1398 1402 1404 1406 1409 1410 1411 1414 1415 1417 1419 1421 1424 1428 1431 1433 1437 1439 1444 1448 1451 1454 1457 1460
1440 1443 1453 1454 1441 1428 1387 1385 1383 1388 1388 1389 1393 1392 1390 1388 1385 1386 1388 1389 1391 1395 1396 1398 1401 1404 1408 1410 1411 1413 1416 1419 1421 1424 1428 1432 1436 1439 1441 1445 1448 1449 1453 1454
1429 1439 1451 1447 1440 1416 1387 1385 1387 1390 1387 1384 1386 1386 1384 1381 1383 1382 1379 1381 1384 1384 1387 1390 1395 1398 1401 1405 1408 1411 1413 1417 1420 1423 1427 1429 1432 1436 1440 1443 1446 1449 1451 1454
1433 1434 1437 1446 1446 1432 1404 1382 1378 1381 1394 1375 1375 1378 1380 1378 1387 1380 1374 1376 1377 1378 1381 1385 1390 1396 1400 1402 1405 1408 1410 1414 1416 1419 1422 1426 1429 1432 1435 1438 1441 1444 1447 1450
1438 1441 1434 1434 1438 1424 1403 1391 1373 1393 1394 1381 1375 1372 1369 1373 1368 1367 1367 1370 1372 1373 1378 1384 1389 1393 1396 1399 1402 1405 1408 1411 1414 1415 1417 1420 1424 1428 1431 1434 1436 1439 1442 1446
1423 1432 1434 1430 1432 1420 1395 1385 1386 1390 1383 1382 1375 1368 1367 1365 1361 1360 1363 1367 1371 1374 1378 1382 1385 1389 1393 1395 1398 1402 1406 1409 1411 1413 1416 1419 1422 1425 1428 1431 1434 1437 1439 1441
1415 1406 1413 1411 1402 1384 1385 1392 1392 1389 1385 1381 1376 1368 1363 1365 1362 1361 1363 1367 1371 1373 1376 1379 1383 1387 1391 1393 1395 1399 1403 1406 1409 1413 1416 1419 1423 1425 1428 1430 1433 1435 1438 1440
1396 1395 1399 1401 1388 1386 1381 1380 1385 1385 1380 1375 1371 1368 1361 1362 1363 1361 1360 1362 1365 1369 1372 1374 1380 1385 1390 1393 1395 1400 1403 1406 1410 1414 1417 1421 1423 1426 1429 1432 1435 1437 1438 1440
1391 1391 1391 1391 1381 1379 1378 1374 1375 1376 1372 1371 1371 1367 1364 1367 1367 1367 1362 1363 1363 1367 1372 1375 1378 1383 1390 1393 1395 1398 1402 1405 1409 1413 1417 1421 1425 1427 1430 1433 1437 1439 1441 1444
1391 1388 1390 1386 1372 1371 1369 1368 1365 1365 1366 1366 1365 1362 1362 1366 1365 1367 1368 1367 1365 1368 1372 1377 1381 1385 1389 1393 1395 1398 1401 1404 1407 1411 1416 1420 1424 1428 1431 1434 1436 1439 1442 1444